QPF
0.07 0.05 0.05 0.07 0.06 0.05 0.06 0.09 0.07 0.05 0.04 0.04 0.03 0.02 0.02 0.02 0.02 0.02 0.04 0.03 0.03 0.02 0.02 0.03 0.03 0.02 0.02 0.02 0.02 0.02 0.02 0.02 0.02 0.01 0.02 0.02 0.02 0.02 0.02 0.02 0.02 0.03 0.03
0.07 0.07 0.06 0.06 0.06 0.05 0.06 0.08 0.05 0.06 0.04 0.04 0.04 0.03 0.02 0.02 0.02 0.03 0.06 0.06 0.05 0.03 0.02 0.03 0.03 0.03 0.03 0.02 0.02 0.02 0.03 0.03 0.03 0.02 0.02 0.03 0.04 0.02 0.02 0.02 0.02 0.02 0.02
0.06 0.07 0.07 0.06 0.06 0.06 0.06 0.06 0.05 0.05 0.03 0.03 0.03 0.03 0.02 0.02 0.05 0.04 0.06 0.08 0.06 0.04 0.02 0.02 0.03 0.03 0.03 0.04 0.04 0.04 0.04 0.03 0.03 0.03 0.02 0.03 0.03 0.02 0.02 0.02 0.03 0.03 0.03
0.04 0.05 0.07 0.06 0.06 0.06 0.07 0.06 0.05 0.05 0.05 0.04 0.04 0.03 0.02 0.04 0.05 0.06 0.06 0.07 0.08 0.06 0.03 0.02 0.02 0.02 0.03 0.04 0.06 0.06 0.04 0.03 0.03 0.04 0.03 0.02 0.02 0.03 0.03 0.03 0.03 0.03 0.03
0.02 0.04 0.06 0.07 0.06 0.06 0.07 0.06 0.06 0.07 0.06 0.06 0.04 0.04 0.03 0.02 0.03 0.06 0.07 0.06 0.09 0.11 0.08 0.03 0.03 0.02 0.03 0.04 0.05 0.06 0.04 0.04 0.03 0.03 0.03 0.02 0.03 0.03 0.03 0.02 0.03 0.04 0.04
0.03 0.04 0.06 0.07 0.08 0.09 0.09 0.09 0.09 0.08 0.07 0.08 0.05 0.07 0.05 0.02 0.03 0.04 0.04 0.05 0.06 0.06 0.08 0.07 0.07 0.05 0.04 0.04 0.05 0.06 0.06 0.06 0.06 0.05 0.03 0.03 0.03 0.03 0.03 0.04 0.05 0.04 0.05
0.03 0.06 0.07 0.08 0.08 0.09 0.10 0.09 0.09 0.08 0.07 0.08 0.09 0.10 0.07 0.04 0.04 0.04 0.05 0.05 0.06 0.05 0.04 0.06 0.08 0.10 0.08 0.06 0.05 0.05 0.06 0.08 0.08 0.08 0.06 0.05 0.04 0.04 0.04 0.04 0.04 0.04 0.05
0.04 0.05 0.07 0.08 0.07 0.09 0.11 0.10 0.10 0.09 0.09 0.08 0.09 0.13 0.14 0.13 0.09 0.06 0.06 0.06 0.06 0.06 0.05 0.05 0.08 0.13 0.15 0.13 0.08 0.06 0.06 0.07 0.08 0.09 0.10 0.08 0.06 0.06 0.05 0.05 0.05 0.05 0.05
0.04 0.04 0.06 0.07 0.08 0.08 0.09 0.09 0.10 0.11 0.10 0.09 0.09 0.11 0.14 0.16 0.13 0.10 0.08 0.06 0.06 0.07 0.07 0.08 0.12 0.14 0.13 0.15 0.14 0.09 0.07 0.08 0.09 0.10 0.10 0.09 0.08 0.07 0.06 0.06 0.06 0.05 0.05
0.04 0.04 0.05 0.05 0.06 0.06 0.08 0.06 0.09 0.12 0.11 0.11 0.09 0.09 0.10 0.14 0.15 0.13 0.10 0.06 0.07 0.06 0.07 0.07 0.06 0.05 0.07 0.11 0.14 0.09 0.07 0.06 0.06 0.07 0.07 0.07 0.07 0.07 0.07 0.07 0.06 0.06 0.06
0.05 0.04 0.06 0.07 0.07 0.07 0.07 0.08 0.11 0.12 0.12 0.13 0.12 0.10 0.10 0.13 0.13 0.14 0.13 0.08 0.06 0.05 0.05 0.06 0.07 0.05 0.06 0.08 0.10 0.08 0.07 0.05 0.03 0.02 0.02 0.04 0.06 0.08 0.08 0.09 0.09 0.10 0.09
0.04 0.03 0.04 0.06 0.08 0.08 0.07 0.08 0.10 0.09 0.11 0.12 0.11 0.10 0.11 0.11 0.13 0.15 0.14 0.10 0.08 0.05 0.05 0.06 0.07 0.05 0.06 0.07 0.06 0.06 0.06 0.04 0.02 0.01 0.01 0.02 0.04 0.08 0.11 0.13 0.15 0.14 0.12
0.02 0.02 0.02 0.03 0.06 0.06 0.06 0.08 0.08 0.08 0.09 0.10 0.10 0.10 0.09 0.07 0.09 0.11 0.12 0.11 0.09 0.07 0.07 0.07 0.06 0.05 0.05 0.05 0.05 0.08 0.06 0.05 0.03 0.03 0.03 0.05 0.07 0.10 0.12 0.13 0.14 0.13 0.12
0.01 0.02 0.02 0.02 0.02 0.03 0.05 0.06 0.07 0.08 0.09 0.08 0.07 0.09 0.08 0.05 0.07 0.09 0.11 0.11 0.10 0.10 0.09 0.07 0.05 0.03 0.03 0.04 0.05 0.05 0.04 0.05 0.05 0.03 0.04 0.04 0.05 0.06 0.08 0.09 0.09 0.09 0.08
0.01 0.01 0.02 0.02 0.01 0.02 0.04 0.05 0.07 0.07 0.07 0.07 0.07 0.08 0.06 0.05 0.05 0.07 0.09 0.10 0.11 0.11 0.09 0.07 0.04 0.02 0.03 0.06 0.06 0.04 0.03 0.03 0.02 0.02 0.02 0.03 0.03 0.04 0.06 0.06 0.05 0.05 0.06
0.03 0.02 0.02 0.02 0.02 0.03 0.04 0.04 0.05 0.06 0.05 0.05 0.05 0.05 0.06 0.06 0.06 0.06 0.07 0.08 0.11 0.11 0.08 0.06 0.04 0.03 0.04 0.05 0.06 0.05 0.05 0.02 0.02 0.03 0.03 0.03 0.04 0.05 0.05 0.07 0.07 0.05 0.04
0.03 0.02 0.03 0.03 0.03 0.04 0.04 0.03 0.03 0.03 0.03 0.03 0.03 0.04 0.06 0.08 0.07 0.06 0.07 0.08 0.09 0.09 0.07 0.05 0.04 0.04 0.04 0.04 0.03 0.03 0.03 0.03 0.04 0.04 0.03 0.02 0.02 0.03 0.03 0.03 0.04 0.04 0.02
0.02 0.04 0.05 0.05 0.04 0.03 0.03 0.03 0.02 0.03 0.03 0.03 0.03 0.04 0.05 0.07 0.08 0.08 0.08 0.08 0.07 0.08 0.07 0.06 0.06 0.05 0.04 0.03 0.02 0.03 0.03 0.03 0.04 0.04 0.03 0.02 0.03 0.03 0.03 0.03 0.02 0.01 0.01
0.03 0.06 0.06 0.06 0.07 0.05 0.03 0.03 0.02 0.02 0.02 0.02 0.03 0.04 0.05 0.06 0.06 0.07 0.07 0.06 0.06 0.07 0.08 0.07 0.07 0.06 0.06 0.03 0.03 0.03 0.03 0.04 0.04 0.03 0.03 0.02 0.02 0.02 0.02 0.01 0.01 0.01 0.00
0.04 0.06 0.05 0.05 0.07 0.05 0.03 0.02 0.02 0.02 0.02 0.02 0.02 0.03 0.05 0.05 0.05 0.05 0.06 0.07 0.07 0.08 0.08 0.08 0.06 0.05 0.05 0.04 0.04 0.04 0.04 0.05 0.05 0.04 0.02 0.02 0.02 0.02 0.01 0.01 0.01 0.01 0.01
0.01 0.03 0.02 0.01 0.02 0.02 0.02 0.02 0.02 0.03 0.03 0.03 0.03 0.04 0.05 0.05 0.04 0.04 0.04 0.06 0.06 0.07 0.06 0.06 0.05 0.05 0.04 0.03 0.04 0.04 0.04 0.05 0.05 0.04 0.03 0.02 0.02 0.02 0.02 0.02 0.02 0.01 0.01
0.01 0.01 0.01 0.02 0.02 0.01 0.02 0.01 0.01 0.02 0.03 0.04 0.03 0.03 0.03 0.03 0.02 0.02 0.03 0.03 0.03 0.03 0.03 0.04 0.04 0.04 0.03 0.04 0.04 0.04 0.05 0.05 0.04 0.05 0.04 0.02 0.01 0.02 0.02 0.02 0.02 0.02 0.02
0.01 0.01 0.01 0.01 0.02 0.02 0.02 0.01 0.01 0.02 0.03 0.04 0.04 0.03 0.02 0.02 0.02 0.02 0.02 0.02 0.02 0.01 0.01 0.02 0.02 0.02 0.03 0.04 0.04 0.04 0.05 0.05 0.05 0.05 0.03 0.02 0.01 0.01 0.01 0.01 0.01 0.01 0.01
0.01 0.01 0.01 0.01 0.01 0.01 0.01 0.01 0.01 0.01 0.02 0.03 0.03 0.03 0.03 0.02 0.02 0.02 0.02 0.02 0.01 0.01 0.01 0.01 0.01 0.01 0.02 0.03 0.04 0.04 0.04 0.03 0.03 0.03 0.02 0.01 0.01 0.01 0.01 0.01 0.01 0.01 0.01
0.01 0.00 0.00 0.01 0.01 0.01 0.01 0.01 0.01 0.02 0.02 0.02 0.02 0.03 0.03 0.04 0.03 0.02 0.02 0.02 0.01 0.01 0.01 0.01 0.01 0.01 0.01 0.01 0.01 0.02 0.03 0.03 0.03 0.02 0.02 0.01 0.01 0.01 0.01 0.01 0.01 0.01 0.01
0.00 0.00 0.00 0.01 0.01 0.02 0.02 0.01 0.03 0.04 0.04 0.04 0.03 0.02 0.03 0.03 0.03 0.03 0.03 0.03 0.02 0.02 0.02 0.02 0.02 0.02 0.02 0.01 0.01 0.01 0.02 0.02 0.03 0.02 0.02 0.01 0.01 0.01 0.00 0.00 0.00 0.00 0.00
MSLP
1015.16 1015.32 1015.46 1015.56 1015.66 1015.75 1015.83 1015.88 1015.90 1015.86 1015.78 1015.66 1015.53 1015.43 1015.41 1015.51 1015.73 1016.08 1016.52 1017.01 1017.49 1017.93 1018.28 1018.54 1018.71 1018.80 1018.85 1018.89 1018.93 1019.00 1019.09 1019.20 1019.33 1019.47 1019.61 1019.75 1019.90 1020.03 1020.17 1020.28 1020.37 1020.44 1020.49
1015.03 1015.16 1015.27 1015.37 1015.47 1015.56 1015.64 1015.71 1015.74 1015.74 1015.69 1015.62 1015.53 1015.47 1015.46 1015.53 1015.71 1015.98 1016.35 1016.76 1017.19 1017.60 1017.96 1018.25 1018.47 1018.62 1018.72 1018.78 1018.83 1018.88 1018.94 1019.02 1019.11 1019.23 1019.36 1019.51 1019.66 1019.81 1019.95 1020.07 1020.17 1020.24 1020.30
1014.95 1015.05 1015.15 1015.25 1015.34 1015.45 1015.55 1015.64 1015.71 1015.74 1015.75 1015.72 1015.68 1015.65 1015.64 1015.68 1015.80 1015.98 1016.24 1016.56 1016.91 1017.27 1017.61 1017.92 1018.18 1018.38 1018.52 1018.62 1018.68 1018.72 1018.75 1018.78 1018.83 1018.91 1019.02 1019.16 1019.31 1019.47 1019.63 1019.77 1019.88 1019.97 1020.05
1014.91 1014.98 1015.06 1015.16 1015.28 1015.40 1015.53 1015.65 1015.76 1015.85 1015.91 1015.94 1015.94 1015.94 1015.94 1015.95 1016.00 1016.09 1016.24 1016.45 1016.70 1016.98 1017.29 1017.59 1017.87 1018.11 1018.30 1018.43 1018.50 1018.53 1018.52 1018.51 1018.52 1018.55 1018.63 1018.74 1018.89 1019.06 1019.23 1019.39 1019.52 1019.65 1019.76
1014.86 1014.90 1014.98 1015.10 1015.23 1015.38 1015.54 1015.70 1015.85 1015.98 1016.10 1016.18 1016.25 1016.28 1016.29 1016.28 1016.28 1016.29 1016.34 1016.43 1016.58 1016.79 1017.04 1017.32 1017.61 1017.87 1018.09 1018.24 1018.33 1018.34 1018.32 1018.27 1018.22 1018.21 1018.24 1018.33 1018.47 1018.63 1018.81 1018.99 1019.16 1019.31 1019.46
1014.76 1014.79 1014.87 1015.00 1015.16 1015.34 1015.52 1015.71 1015.90 1016.07 1016.24 1016.38 1016.49 1016.57 1016.61 1016.61 1016.58 1016.54 1016.51 1016.51 1016.57 1016.70 1016.89 1017.14 1017.42 1017.70 1017.93 1018.10 1018.19 1018.21 1018.16 1018.08 1017.99 1017.94 1017.93 1017.98 1018.09 1018.25 1018.43 1018.63 1018.82 1019.01 1019.20
1014.61 1014.63 1014.71 1014.85 1015.03 1015.22 1015.43 1015.63 1015.84 1016.05 1016.25 1016.44 1016.61 1016.74 1016.83 1016.86 1016.84 1016.78 1016.70 1016.65 1016.65 1016.71 1016.86 1017.07 1017.33 1017.61 1017.85 1018.04 1018.14 1018.16 1018.10 1017.99 1017.87 1017.78 1017.73 1017.75 1017.84 1017.98 1018.16 1018.36 1018.56 1018.78 1018.99
1014.40 1014.41 1014.50 1014.65 1014.83 1015.03 1015.24 1015.44 1015.65 1015.87 1016.10 1016.33 1016.55 1016.74 1016.89 1016.97 1016.99 1016.95 1016.88 1016.81 1016.77 1016.80 1016.91 1017.10 1017.34 1017.62 1017.87 1018.06 1018.18 1018.20 1018.14 1018.02 1017.88 1017.76 1017.68 1017.67 1017.72 1017.84 1018.00 1018.20 1018.41 1018.63 1018.86
1014.17 1014.17 1014.25 1014.40 1014.58 1014.77 1014.96 1015.16 1015.35 1015.56 1015.79 1016.04 1016.31 1016.56 1016.77 1016.93 1017.01 1017.03 1016.99 1016.94 1016.91 1016.93 1017.03 1017.20 1017.44 1017.71 1017.96 1018.17 1018.30 1018.33 1018.28 1018.16 1018.02 1017.88 1017.78 1017.74 1017.76 1017.85 1017.99 1018.16 1018.37 1018.59 1018.83
1013.92 1013.91 1013.99 1014.13 1014.30 1014.48 1014.65 1014.81 1014.98 1015.16 1015.38 1015.64 1015.93 1016.22 1016.50 1016.73 1016.90 1016.99 1017.02 1017.02 1017.03 1017.07 1017.17 1017.35 1017.58 1017.85 1018.11 1018.33 1018.47 1018.53 1018.49 1018.39 1018.25 1018.10 1017.99 1017.93 1017.92 1017.98 1018.09 1018.24 1018.42 1018.63 1018.86
1013.69 1013.67 1013.74 1013.86 1014.02 1014.18 1014.33 1014.46 1014.59 1014.74 1014.94 1015.19 1015.48 1015.81 1016.13 1016.43 1016.67 1016.84 1016.95 1017.03 1017.09 1017.17 1017.31 1017.50 1017.74 1018.02 1018.29 1018.52 1018.68 1018.75 1018.74 1018.66 1018.53 1018.40 1018.28 1018.20 1018.18 1018.21 1018.29 1018.41 1018.57 1018.75 1018.98
1013.46 1013.43 1013.49 1013.61 1013.76 1013.91 1014.03 1014.14 1014.24 1014.36 1014.52 1014.74 1015.03 1015.36 1015.71 1016.05 1016.36 1016.61 1016.80 1016.95 1017.08 1017.23 1017.41 1017.63 1017.89 1018.18 1018.46 1018.71 1018.89 1018.98 1019.00 1018.94 1018.84 1018.72 1018.61 1018.53 1018.49 1018.50 1018.55 1018.64 1018.77 1018.94 1019.15
1013.22 1013.19 1013.25 1013.37 1013.52 1013.66 1013.78 1013.87 1013.95 1014.04 1014.17 1014.35 1014.61 1014.93 1015.28 1015.65 1015.99 1016.30 1016.57 1016.79 1017.00 1017.21 1017.45 1017.71 1018.01 1018.32 1018.62 1018.88 1019.07 1019.20 1019.24 1019.22 1019.15 1019.05 1018.96 1018.88 1018.84 1018.84 1018.87 1018.94 1019.05 1019.19 1019.38
1012.98 1012.95 1013.01 1013.14 1013.30 1013.45 1013.57 1013.66 1013.72 1013.79 1013.88 1014.03 1014.25 1014.54 1014.87 1015.24 1015.60 1015.95 1016.27 1016.57 1016.85 1017.13 1017.42 1017.74 1018.08 1018.41 1018.74 1019.02 1019.24 1019.39 1019.46 1019.47 1019.43 1019.37 1019.31 1019.26 1019.23 1019.22 1019.25 1019.30 1019.39 1019.51 1019.68
1012.71 1012.69 1012.76 1012.91 1013.08 1013.24 1013.38 1013.47 1013.54 1013.59 1013.66 1013.77 1013.95 1014.19 1014.49 1014.84 1015.20 1015.57 1015.93 1016.28 1016.63 1016.98 1017.34 1017.71 1018.09 1018.46 1018.81 1019.11 1019.36 1019.54 1019.65 1019.70 1019.70 1019.68 1019.66 1019.64 1019.63 1019.65 1019.68 1019.73 1019.80 1019.91 1020.06
1012.45 1012.44 1012.52 1012.68 1012.86 1013.04 1013.20 1013.30 1013.37 1013.42 1013.47 1013.55 1013.69 1013.88 1014.14 1014.45 1014.80 1015.17 1015.55 1015.95 1016.35 1016.76 1017.18 1017.61 1018.03 1018.45 1018.83 1019.16 1019.43 1019.64 1019.78 1019.87 1019.93 1019.96 1019.98 1020.01 1020.05 1020.09 1020.14 1020.20 1020.28 1020.38 1020.52
1012.22 1012.22 1012.31 1012.47 1012.66 1012.85 1013.01 1013.13 1013.21 1013.25 1013.29 1013.35 1013.45 1013.60 1013.81 1014.08 1014.40 1014.76 1015.15 1015.57 1016.01 1016.47 1016.94 1017.42 1017.89 1018.34 1018.75 1019.11 1019.41 1019.65 1019.83 1019.97 1020.07 1020.16 1020.25 1020.33 1020.42 1020.51 1020.60 1020.69 1020.79 1020.90 1021.03
1012.03 1012.05 1012.14 1012.30 1012.49 1012.67 1012.84 1012.96 1013.04 1013.09 1013.12 1013.16 1013.23 1013.34 1013.51 1013.74 1014.02 1014.36 1014.74 1015.17 1015.62 1016.11 1016.62 1017.13 1017.64 1018.12 1018.55 1018.94 1019.27 1019.54 1019.75 1019.93 1020.09 1020.24 1020.39 1020.54 1020.70 1020.85 1021.00 1021.14 1021.27 1021.39 1021.53
1011.90 1011.93 1012.03 1012.17 1012.35 1012.52 1012.68 1012.80 1012.88 1012.92 1012.95 1012.98 1013.03 1013.11 1013.25 1013.43 1013.68 1013.98 1014.34 1014.74 1015.20 1015.69 1016.21 1016.73 1017.26 1017.75 1018.21 1018.61 1018.95 1019.25 1019.50 1019.72 1019.93 1020.14 1020.35 1020.58 1020.81 1021.04 1021.25 1021.45 1021.63 1021.80 1021.96
1011.80 1011.85 1011.95 1012.09 1012.24 1012.39 1012.53 1012.64 1012.72 1012.77 1012.80 1012.83 1012.87 1012.93 1013.04 1013.19 1013.39 1013.65 1013.96 1014.33 1014.75 1015.22 1015.72 1016.23 1016.74 1017.23 1017.69 1018.09 1018.45 1018.76 1019.03 1019.29 1019.54 1019.81 1020.09 1020.38 1020.69 1021.00 1021.29 1021.57 1021.81 1022.03 1022.24
1011.69 1011.77 1011.88 1012.01 1012.15 1012.28 1012.40 1012.50 1012.57 1012.62 1012.66 1012.70 1012.74 1012.80 1012.89 1013.00 1013.16 1013.37 1013.62 1013.94 1014.30 1014.71 1015.16 1015.64 1016.11 1016.58 1017.01 1017.40 1017.75 1018.07 1018.36 1018.64 1018.93 1019.24 1019.58 1019.94 1020.31 1020.70 1021.07 1021.43 1021.75 1022.04 1022.31
1011.51 1011.64 1011.77 1011.91 1012.04 1012.16 1012.27 1012.36 1012.43 1012.49 1012.55 1012.60 1012.66 1012.72 1012.80 1012.89 1013.01 1013.16 1013.35 1013.58 1013.87 1014.21 1014.58 1014.99 1015.41 1015.82 1016.22 1016.59 1016.92 1017.23 1017.53 1017.82 1018.13 1018.47 1018.85 1019.26 1019.70 1020.15 1020.59 1021.03 1021.43 1021.80 1022.14
1011.21 1011.41 1011.59 1011.75 1011.89 1012.01 1012.11 1012.20 1012.28 1012.36 1012.44 1012.52 1012.59 1012.67 1012.75 1012.83 1012.91 1013.01 1013.13 1013.29 1013.48 1013.73 1014.01 1014.33 1014.68 1015.03 1015.37 1015.70 1016.01 1016.31 1016.60 1016.90 1017.22 1017.58 1017.98 1018.42 1018.89 1019.39 1019.90 1020.39 1020.87 1021.31 1021.72
1010.78 1011.06 1011.31 1011.51 1011.67 1011.80 1011.91 1012.01 1012.10 1012.20 1012.30 1012.42 1012.53 1012.63 1012.72 1012.79 1012.85 1012.91 1012.96 1013.04 1013.15 1013.30 1013.49 1013.72 1013.98 1014.26 1014.55 1014.84 1015.12 1015.39 1015.67 1015.96 1016.28 1016.64 1017.05 1017.50 1017.99 1018.51 1019.05 1019.59 1020.12 1020.62 1021.10
1010.25 1010.63 1010.95 1011.20 1011.40 1011.55 1011.67 1011.78 1011.88 1012.00 1012.13 1012.27 1012.42 1012.55 1012.66 1012.74 1012.79 1012.82 1012.83 1012.84 1012.87 1012.93 1013.03 1013.17 1013.36 1013.57 1013.80 1014.05 1014.30 1014.55 1014.82 1015.10 1015.41 1015.76 1016.15 1016.60 1017.08 1017.61 1018.15 1018.71 1019.27 1019.81 1020.33
1009.70 1010.17 1010.56 1010.87 1011.10 1011.27 1011.40 1011.51 1011.62 1011.75 1011.90 1012.07 1012.24 1012.41 1012.54 1012.65 1012.70 1012.71 1012.69 1012.66 1012.63 1012.62 1012.64 1012.71 1012.82 1012.97 1013.15 1013.36 1013.58 1013.82 1014.07 1014.34 1014.64 1014.97 1015.35 1015.77 1016.23 1016.73 1017.26 1017.81 1018.37 1018.92 1019.47
Thickness
5759 5758 5757 5757 5757 5757 5756 5756 5756 5756 5756 5756 5755 5755 5755 5754 5753 5750 5747 5745 5743 5742 5741 5739 5737 5736 5734 5733 5731 5730 5729 5727 5725 5724 5722 5720 5718 5717 5716 5714 5713 5712 5711
5759 5758 5757 5757 5758 5758 5757 5757 5757 5756 5755 5755 5755 5755 5754 5754 5752 5750 5748 5745 5744 5742 5741 5739 5738 5736 5735 5733 5732 5730 5729 5727 5725 5724 5722 5720 5718 5717 5716 5714 5713 5712 5710
5759 5758 5758 5757 5757 5758 5758 5757 5757 5756 5755 5754 5754 5754 5754 5753 5751 5751 5748 5746 5744 5742 5741 5739 5738 5736 5735 5733 5732 5731 5729 5727 5725 5724 5722 5720 5718 5717 5715 5714 5713 5711 5710
5759 5758 5758 5757 5757 5758 5757 5756 5755 5754 5753 5753 5752 5752 5753 5752 5751 5750 5749 5747 5745 5743 5741 5739 5738 5736 5735 5734 5732 5731 5729 5728 5726 5724 5722 5720 5719 5717 5715 5714 5712 5711 5709
5759 5759 5758 5758 5757 5758 5757 5756 5755 5753 5751 5751 5751 5751 5752 5752 5751 5751 5750 5749 5747 5745 5742 5740 5737 5736 5735 5733 5732 5731 5730 5728 5726 5724 5722 5720 5719 5717 5715 5713 5712 5710 5708
5761 5760 5759 5758 5758 5757 5756 5755 5753 5753 5751 5750 5750 5750 5751 5751 5751 5751 5750 5749 5747 5746 5743 5741 5738 5735 5734 5733 5732 5731 5730 5728 5726 5724 5722 5720 5718 5717 5715 5713 5711 5709 5707
5762 5760 5760 5758 5758 5756 5755 5755 5753 5751 5750 5751 5746 5744 5747 5750 5750 5749 5748 5748 5747 5746 5744 5741 5738 5736 5733 5732 5731 5730 5729 5727 5725 5723 5721 5719 5718 5716 5714 5712 5710 5708 5706
5762 5762 5760 5759 5758 5756 5755 5754 5752 5750 5749 5751 5745 5739 5735 5737 5743 5748 5746 5746 5745 5744 5742 5740 5737 5735 5733 5731 5729 5729 5727 5725 5723 5721 5720 5718 5716 5715 5713 5711 5709 5707 5705
5763 5763 5762 5760 5759 5757 5754 5753 5752 5749 5746 5749 5750 5743 5734 5730 5734 5739 5741 5742 5742 5740 5739 5737 5735 5733 5731 5729 5726 5725 5724 5723 5721 5719 5718 5716 5714 5713 5711 5709 5707 5705 5703
5765 5764 5762 5761 5759 5757 5755 5754 5753 5751 5749 5745 5748 5749 5746 5742 5732 5728 5733 5736 5738 5736 5735 5734 5732 5730 5728 5725 5723 5722 5720 5718 5717 5716 5715 5713 5712 5710 5709 5707 5704 5702 5700
5766 5764 5762 5760 5758 5757 5755 5754 5752 5751 5749 5746 5744 5744 5744 5743 5741 5731 5725 5728 5730 5731 5731 5729 5727 5726 5724 5721 5719 5718 5716 5714 5713 5712 5710 5709 5708 5707 5705 5702 5700 5698 5696
5766 5764 5763 5761 5758 5756 5755 5754 5752 5750 5748 5747 5745 5744 5741 5738 5736 5733 5726 5724 5723 5725 5726 5725 5723 5721 5719 5717 5715 5713 5711 5710 5708 5706 5705 5704 5703 5701 5700 5698 5695 5693 5691
5765 5764 5763 5760 5758 5756 5755 5753 5751 5749 5748 5746 5744 5743 5742 5741 5740 5736 5730 5725 5722 5721 5721 5719 5719 5717 5714 5712 5710 5708 5706 5704 5703 5700 5699 5697 5696 5695 5693 5691 5689 5687 5685
5767 5765 5763 5760 5758 5756 5754 5752 5750 5748 5747 5745 5744 5742 5740 5741 5740 5737 5732 5725 5717 5715 5714 5712 5713 5712 5709 5706 5703 5702 5700 5698 5696 5694 5692 5690 5688 5687 5685 5683 5681 5678 5676
5769 5766 5763 5760 5758 5755 5753 5751 5748 5746 5745 5743 5742 5740 5738 5738 5738 5736 5734 5729 5719 5709 5706 5707 5706 5706 5704 5701 5697 5694 5693 5691 5690 5688 5686 5683 5681 5679 5677 5674 5672 5670 5668
5768 5765 5762 5759 5757 5754 5752 5749 5746 5744 5742 5740 5739 5737 5735 5735 5734 5733 5731 5729 5724 5715 5706 5705 5703 5702 5700 5697 5693 5690 5687 5685 5683 5681 5679 5676 5674 5672 5669 5667 5664 5662 5660
5767 5764 5760 5757 5754 5752 5749 5747 5744 5741 5738 5736 5735 5733 5732 5731 5729 5728 5727 5725 5722 5716 5705 5702 5701 5698 5695 5692 5687 5684 5682 5679 5677 5674 5671 5669 5666 5664 5661 5659 5656 5654 5651
5766 5763 5759 5756 5753 5750 5747 5744 5741 5738 5735 5732 5730 5729 5728 5728 5725 5723 5721 5719 5716 5713 5706 5697 5694 5692 5689 5687 5684 5681 5678 5674 5670 5667 5664 5661 5659 5656 5653 5651 5648 5645 5642
5766 5762 5758 5754 5751 5748 5745 5742 5739 5736 5733 5730 5728 5725 5724 5722 5720 5718 5716 5714 5712 5709 5704 5697 5691 5688 5684 5682 5679 5676 5673 5668 5665 5660 5657 5654 5651 5648 5645 5642 5639 5637 5634
5764 5760 5756 5753 5750 5746 5742 5739 5736 5733 5730 5727 5725 5722 5720 5717 5715 5713 5711 5708 5706 5702 5698 5693 5688 5683 5679 5677 5673 5668 5664 5662 5659 5655 5651 5647 5644 5640 5637 5634 5632 5629 5626
5762 5758 5754 5751 5748 5744 5739 5735 5733 5730 5726 5723 5720 5718 5715 5712 5709 5707 5705 5701 5698 5694 5690 5686 5682 5678 5673 5669 5665 5663 5658 5655 5653 5650 5645 5641 5637 5633 5630 5627 5624 5621 5618
5759 5755 5750 5747 5744 5740 5735 5732 5729 5726 5723 5719 5715 5713 5710 5707 5704 5701 5698 5695 5692 5688 5684 5680 5676 5671 5668 5665 5661 5658 5654 5649 5645 5645 5640 5636 5632 5628 5624 5620 5618 5614 5611
5755 5750 5747 5742 5737 5733 5729 5727 5724 5722 5719 5715 5711 5708 5706 5703 5699 5695 5692 5689 5686 5683 5680 5676 5670 5666 5663 5660 5656 5652 5649 5645 5641 5640 5635 5630 5627 5623 5619 5615 5611 5608 5604
5751 5747 5742 5738 5733 5728 5724 5721 5719 5717 5714 5711 5707 5703 5699 5695 5692 5689 5686 5682 5678 5675 5673 5670 5666 5662 5658 5654 5651 5647 5643 5639 5636 5633 5630 5623 5621 5617 5614 5609 5605 5601 5597
5747 5743 5738 5734 5728 5723 5719 5716 5714 5712 5708 5705 5702 5697 5693 5688 5685 5682 5679 5675 5671 5667 5664 5661 5658 5654 5650 5647 5643 5639 5636 5631 5627 5625 5623 5618 5615 5611 5607 5602 5598 5594 5591
5743 5739 5734 5730 5725 5719 5714 5711 5708 5707 5703 5699 5695 5690 5686 5682 5678 5675 5672 5668 5663 5660 5657 5654 5650 5647 5644 5640 5637 5633 5630 5625 5622 5618 5616 5612 5608 5604 5598 5596 5592 5588 5584